SQ7WT-13 Weather Reports


time (UTC)temp
C
wind
direction
speed
KPH
gust
KPH
rain 1hr
cm
rain 24hr
cm
rain mn
cm
humidity
%
barometer
mb
20260905210845 12 116 0.0 8.0 0.00 0.00 0.00 98 989.0
20260905205844 11 336 0.0 4.8 0.00 0.08 0.00 98 989.0
20260905204843 12 42 1.6 4.8 0.00 0.15 0.00 98 988.9
20260905203842 12 324 1.6 6.4 0.00 0.10 0.00 97 989.5
20260905202841 12 176 3.2 8.0 0.00 0.05 0.00 94 989.5
20260905201840 13 78 4.8 12.9 0.00 0.00 0.00 88 989.4
20260905200839 14 46 1.6 9.7 0.00 0.00 0.00 75 988.9
20260905195838 14 270 0.0 0.0 0.00 0.00 0.00 75 988.2
20260905194836 14 252 0.0 0.0 0.00 0.00 0.00 74 988.2
20260905193835 15 227 0.0 4.8 0.00 0.00 0.00 75 988.2
20260905192834 14 150 0.0 6.4 0.00 0.00 0.00 74 988.2
20260905191833 14 282 0.0 0.0 0.00 0.00 0.00 76 988.3
20260905190831 14 275 0.0 0.0 0.00 0.00 0.00 76 988.4
20260905185831 15 270 0.0 3.2 0.00 0.00 0.00 75 988.4
20260905184830 15 294 0.0 0.0 0.00 0.00 0.00 74 988.3
20260905183828 15 96 0.0 1.6 0.00 0.00 0.00 72 988.2
20260905182827 15 187 0.0 0.0 0.00 0.00 0.00 72 988.1
20260905181826 15 270 0.0 0.0 0.00 0.00 0.00 71 988.1
20260905180825 15 258 0.0 0.0 0.00 0.00 0.00 71 988.1
20260905175824 15 276 0.0 0.0 0.00 0.00 0.00 69 987.9
20260905174823 15 270 0.0 3.2 0.00 0.00 0.00 69 987.9
20260905173822 16 115 0.0 4.8 0.00 0.00 0.00 67 987.8
20260905172821 16 343 1.6 8.0 0.00 0.00 0.00 66 987.7
20260905171820 16 120 0.0 3.2 0.00 0.00 0.00 65 987.7
20260905170819 16 97 0.0 3.2 0.00 0.00 0.00 64 987.6
20260905165817 17 95 1.6 6.4 0.00 0.00 0.00 60 987.6
20260905164817 17 57 0.0 6.4 0.00 0.00 0.00 62 987.7
20260905163815 17 287 0.0 4.8 0.00 0.00 0.00 63 987.5
20260905162814 18 258 0.0 6.4 0.00 0.00 0.00 64 987.4
20260905161813 18 264 0.0 1.6 0.00 0.00 0.00 64 987.3
20260905160812 18 52 0.0 3.2 0.00 0.00 0.00 59 987.3
20260905155811 18 108 1.6 6.4 0.00 0.00 0.00 61 987.2
20260905154810 18 318 1.6 8.0 0.00 0.00 0.00 58 987.1
20260905153809 18 252 1.6 9.7 0.00 0.00 0.00 57 987.2
20260905152808 18 226 1.6 11.3 0.00 0.00 0.00 58 987.0
20260905151807 18 181 1.6 9.7 0.00 0.00 0.00 57 987.0
20260905150805 19 19 1.6 8.0 0.00 0.00 0.00 58 986.9
20260905145804 19 204 1.6 9.7 0.00 0.00 0.00 60 987.0
20260905144803 20 221 1.6 9.7 0.00 0.00 0.00 55 987.0
20260905143802 19 180 3.2 16.1 0.00 0.00 0.00 57 987.0
20260905142802 19 96 3.2 9.7 0.00 0.00 0.00 57 987.0
20260905141800 19 300 3.2 11.3 0.00 0.00 0.00 58 987.1
20260905140759 20 174 1.6 8.0 0.00 0.00 0.00 57 986.9
20260905135758 19 232 1.6 8.0 0.00 0.00 0.00 58 987.0
20260905134757 19 175 3.2 11.3 0.00 0.00 0.00 58 986.9
20260905133756 19 82 4.8 16.1 0.00 0.00 0.00 58 986.9
20260905132755 20 162 3.2 17.7 0.00 0.00 0.00 56 986.8
20260905131753 18 28 3.2 9.7 0.00 0.00 0.00 59 986.9
20260905130752 19 126 3.2 16.1 0.00 0.00 0.00 58 986.6
20260905125751 20 78 3.2 14.5 0.00 0.00 0.00 56 986.6
20260905124750 19 208 3.2 11.3 0.00 0.00 0.00 56 986.8
20260905123749 19 220 3.2 9.7 0.00 0.00 0.00 56 986.8
20260905122749 21 174 3.2 14.5 0.00 0.00 0.00 53 986.5
20260905121747 21 299 6.4 14.5 0.00 0.00 0.00 53 986.5
20260905120746 21 269 4.8 11.3 0.00 0.00 0.00 53 986.6
20260905115745 21 48 3.2 16.1 0.00 0.00 0.00 54 986.5
20260905114743 21 332 3.2 11.3 0.00 0.00 0.00 53 986.5
20260905113742 21 294 4.8 9.7 0.00 0.00 0.00 53 986.3
20260905112741 21 186 4.8 11.3 0.00 0.00 0.00 55 986.4
20260905111740 20 298 4.8 14.5 0.00 0.00 0.00 61 986.5
20260905110740 19 240 3.2 8.0 0.00 0.00 0.00 62 986.5
20260905105738 18 52 4.8 11.3 0.00 0.00 0.00 65 986.6
20260905104737 20 134 4.8 9.7 0.00 0.00 0.00 59 986.4
20260905103736 20 164 3.2 9.7 0.00 0.00 0.00 58 986.4
20260905102735 18 353 3.2 11.3 0.00 0.00 0.00 65 986.4
20260905101734 18 5 4.8 17.7 0.00 0.00 0.00 65 986.4
20260905100733 18 101 3.2 9.7 0.00 0.00 0.00 65 986.4
20260905095732 19 348 3.2 9.7 0.00 0.00 0.00 65 986.3
20260905094731 19 263 4.8 12.9 0.00 0.00 0.00 65 986.2
20260905093730 17 72 3.2 9.7 0.00 0.00 0.00 70 986.3
20260905092730 18 0 3.2 8.0 0.00 0.00 0.00 71 986.2
20260905091728 18 278 3.2 9.7 0.00 0.00 0.00 71 986.1
20260905090727 18 349 3.2 9.7 0.00 0.00 0.00 73 986.1
20260905085726 17 78 1.6 6.4 0.00 0.00 0.00 70 986.2
20260905084726 17 284 3.2 19.3 0.00 0.00 0.00 76 986.1
20260905083724 18 336 3.2 16.1 0.00 0.00 0.00 75 986.1
20260905082723 17 270 3.2 9.7 0.00 0.00 0.00 74 986.2
20260905081723 16 250 3.2 8.0 0.00 0.00 0.00 80 986.0
20260905080722 17 67 3.2 9.7 0.00 0.00 0.00 79 985.9
20260905075721 17 35 3.2 9.7 0.00 0.00 0.00 78 985.8
20260905074720 17 186 3.2 16.1 0.00 0.00 0.00 81 985.9
20260905073719 17 244 3.2 9.7 0.00 0.00 0.00 82 985.7
20260905072718 16 283 1.6 8.0 0.00 0.00 0.00 83 985.7
20260905071717 16 98 1.6 6.4 0.00 0.00 0.00 89 985.7
20260905070716 16 282 1.6 6.4 0.00 0.00 0.00 87 985.4
20260905065715 16 110 1.6 8.0 0.00 0.00 0.00 90 985.2
20260905064714 15 193 1.6 9.7 0.00 0.00 0.00 90 985.3
20260905063713 15 10 3.2 8.0 0.00 0.00 0.00 91 985.2
20260905062712 15 270 1.6 11.3 0.00 0.00 0.00 92 985.1
20260905061711 15 306 1.6 6.4 0.00 0.00 0.00 94 984.9
20260905060710 15 274 1.6 8.0 0.00 0.03 0.00 95 984.8
20260905055709 15 46 1.6 6.4 0.00 0.03 0.00 96 984.3
20260905054708 15 264 1.6 8.0 0.00 0.00 0.00 96 984.5
20260905053706 15 16 1.6 6.4 0.00 0.00 0.00 96 984.4
20260905052705 15 328 1.6 6.4 0.00 0.00 0.00 96 984.4
20260905051705 15 97 1.6 4.8 0.00 0.00 0.00 96 984.3
20260905050703 15 24 1.6 9.7 0.00 0.00 0.00 96 984.2
20260905045703 15 199 1.6 11.3 0.00 0.00 0.00 96 984.4
20260905044701 15 270 3.2 14.5 0.00 0.00 0.00 95 983.8
20260905043700 15 126 1.6 9.7 0.00 0.00 0.00 96 983.9
20260905042659 15 306 1.6 8.0 0.00 0.00 0.00 97 983.9
20260905041658 15 60 1.6 9.7 0.00 0.00 0.00 96 983.8
20260905040657 15 114 1.6 11.3 0.00 0.00 0.00 97 983.3
20260905035656 15 142 3.2 9.7 0.00 0.00 0.00 96 983.2
20260905034655 15 90 1.6 6.4 0.00 0.00 0.00 97 982.9
20260905033654 15 240 1.6 8.0 0.00 0.00 0.00 98 983.0
20260905032653 15 276 3.2 9.7 0.00 0.00 0.00 98 982.8
20260905031652 15 48 1.6 8.0 0.00 0.00 0.00 98 983.0
20260905030651 15 108 1.6 8.0 0.00 0.00 0.00 99 982.8
20260905025650 15 344 1.6 8.0 0.00 0.00 0.00 97 982.7
20260905024649 15 36 1.6 8.0 0.00 0.00 0.00 98 982.8
20260905023648 15 30 1.6 8.0 0.00 0.00 0.00 98 982.9
20260905022646 15 246 1.6 16.1 0.00 0.00 0.00 98 982.5
20260905021645 15 66 1.6 9.7 0.00 0.00 0.00 99 982.9
20260905020644 15 244 1.6 8.0 0.00 0.00 0.00 99 982.1
20260905015643 15 240 1.6 8.0 0.00 0.00 0.00 99 982.2
20260905014643 15 114 1.6 8.0 0.00 0.00 0.00 98 982.3
20260905013641 15 137 1.6 6.4 0.00 0.00 0.00 98 982.5
20260905012640 15 116 1.6 6.4 0.00 0.00 0.00 98 982.1
20260905011639 15 78 1.6 9.7 0.00 0.03 0.00 98 982.4
20260905010639 15 204 1.6 9.7 0.00 0.05 0.00 97 982.2
20260905005638 15 98 1.6 9.7 0.00 0.03 0.00 98 982.5
20260905004636 15 306 1.6 9.7 0.00 0.00 0.00 97 981.9
20260905003635 15 24 1.6 8.0 0.00 0.00 0.00 96 981.9
20260905002635 15 126 1.6 16.1 0.00 0.03 0.00 95 981.6
20260905001633 16 132 1.6 9.7 0.00 0.03 0.00 97 981.8
20260905000632 16 234 1.6 6.4 0.00 0.00 0.00 97 981.8
20260904235631 16 338 1.6 6.4 0.00 0.05 0.00 97 981.4
20260904234630 16 237 1.6 6.4 0.00 0.08 0.00 95 981.2
20260904233629 17 293 3.2 9.7 0.00 0.08 0.00 95 981.1
20260904232628 17 166 3.2 8.0 0.00 0.05 0.00 95 981.1
20260904231627 17 288 1.6 9.7 0.00 0.00 0.00 93 981.2
20260904230626 17 76 1.6 6.4 0.00 0.00 0.00 93 980.9
20260904225624 18 300 1.6 4.8 0.00 0.00 0.00 91 980.3
20260904224624 18 251 1.6 9.7 0.00 0.00 0.00 89 980.5
20260904223622 18 318 0.0 3.2 0.00 0.00 0.00 89 980.4
20260904222621 18 72 1.6 6.4 0.00 0.00 0.00 88 980.3
20260904221620 19 160 1.6 8.0 0.00 0.00 0.00 86 980.4
20260904220619 19 204 3.2 9.7 0.00 0.00 0.00 84 980.7
20260904215618 20 268 1.6 9.7 0.00 0.00 0.00 82 980.8
20260904214617 21 158 1.6 11.3 0.00 0.00 0.00 77 980.3
20260904213616 21 353 4.8 11.3 0.00 0.00 0.00 75 980.2
20260904212615 22 113 4.8 9.7 0.00 0.00 0.00 71 980.2
20260904211614 23 78 4.8 11.3 0.00 0.00 0.00 64 979.9